Location: S�tio Afonso Gruber
(26.1760°S, 49.5250°W)
Time: 08:25:08
(UTC+00:00)

AO-73 - Visible Passes

Search period start: 11 May 2021 00:00
Search period end: 21 May 2021 00:00
Orbit: 582 x 661 km, 97.6° (Epoch: 10 May)

Date Brightness Start Highest point End Pass type
(mag) Time Alt. Az. Time Alt. Az. Time Alt. Az.
11 May ? 08:17:45 10° NNW 08:19:18 19° NW 08:19:18 19° NW visible
12 May ? 06:59:48 10° NE 07:00:01 11° NE 07:00:01 11° NE visible
12 May ? 08:36:29 10° NW 08:37:12 13° NW 08:37:12 13° NW visible
13 May ? 07:16:58 10° NE 07:17:55 16° NE 07:17:55 16° NE visible
14 May ? 07:34:29 10° NNE 07:35:49 20° NNE 07:35:49 20° NNE visible
14 May ? 21:06:42 10° SSW 21:09:34 18° WSW 21:12:26 10° WNW visible
15 May ? 07:52:17 10° N 07:53:43 21° N 07:53:43 21° N visible
15 May ? 21:26:22 10° WSW 21:27:11 10° WSW 21:28:01 10° W visible
16 May ? 08:10:24 10° NNW 08:11:38 18° NNW 08:11:38 18° NNW visible
17 May ? 08:28:56 10° NW 08:29:33 13° NW 08:29:33 13° NW visible
18 May ? 07:10:00 10° NE 07:10:15 11° NE 07:10:15 11° NE visible
19 May ? 07:27:23 10° NNE 07:28:10 15° NNE 07:28:10 15° NNE visible
19 May ? 20:59:07 10° SSW 21:02:24 21° WSW 21:05:44 10° WNW visible
20 May ? 07:45:05 10° N 07:46:05 17° N 07:46:05 17° N visible
20 May ? 21:18:02 10° SW 21:20:03 13° WSW 21:22:05 10° W visible
